Weather History for Chandler, OK

Change the Weather History Date:

Tuesday, February 5, 2013

  Actual Average (KCUH) Record (KCUH)
Temperature  
Mean Temperature 51 °F -  
Max Temperature 69 °F 47 °F 80 °F (1962)
Min Temperature 33 °F 25 °F 2 °F (1989)
Degree Days  
Heating Degree Days 14    
Growing Degree Days 1 (Base 50)    
Moisture  
Dew Point 37 °F    
Average Humidity 62    
Maximum Humidity 100    
Minimum Humidity 28    
Precipitation  
Precipitation 0.00 in - - ()
Sea Level Pressure  
Sea Level Pressure 29.99 in    
Wind  
Wind Speed 3 mph (ENE)    
Max Wind Speed 6 mph    
Max Gust Speed -    
Visibility 10 miles    
Events      
Averages and records for this station are not official NWS values.
T = Trace of Precipitation, MM = Missing Value Source: NWS Daily Summary

Daily Weather History Graph

Daily Weather History Graph

Search for Another Location

Airport:

Trip Planner

Search our weather history database for the weather conditions in past years. The results will help you decide how hot, cold, wet, or windy it might be!

Date:

Astronomy

Feb. 05, 2013 Rise Set
Actual Time 7:23 AM CST 5:59 PM CST
Civil Twilight 6:57 AM CST 6:25 PM CST
Nautical Twilight 6:26 AM CST 6:56 PM CST
Astronomical Twilight 5:56 AM CST 7:26 PM CST
Moon 3:03 AM CST (2/5) 1:21 PM CST (2/5)
Length of Visible Light 11h 28m
Length of Day
10h 35m
Waning Crescent, 26% of the Moon is Illuminated
Feb 5
Waning Crescent
Feb 10
New
Feb 17
First Quarter
Feb 25
Full
Mar 4
Last Quarter

Hourly Weather History & Observations

Time (CST) Temp. Windchill Dew Point Humidity Pressure Visibility Wind Dir Wind Speed Gust Speed Precip Events Conditions
12:15 AM 42.8 °F 40.1 °F 33.8 °F 70% 29.96 in 10.0 mi NE 4.6 mph - N/A   Clear
12:35 AM 44.6 °F 42.2 °F 33.8 °F 66% 29.96 in 10.0 mi ENE 4.6 mph - N/A   Clear
12:55 AM 42.8 °F 41.1 °F 33.8 °F 70% 29.96 in 10.0 mi ENE 3.5 mph - N/A   Clear
1:15 AM 41.0 °F 39.0 °F 33.8 °F 76% 29.95 in 10.0 mi East 3.5 mph - N/A   Clear
1:35 AM 42.8 °F 40.1 °F 35.6 °F 76% 29.95 in 10.0 mi NE 4.6 mph - N/A   Clear
1:55 AM 41.0 °F 37.1 °F 33.8 °F 76% 29.95 in 10.0 mi NNE 5.8 mph - N/A   Clear
2:15 AM 41.0 °F 39.0 °F 33.8 °F 76% 29.95 in 10.0 mi NNE 3.5 mph - N/A   Clear
2:35 AM 41.0 °F - 33.8 °F 76% 29.94 in 10.0 mi Calm Calm - N/A   Clear
2:55 AM 39.2 °F - 35.6 °F 87% 29.94 in 10.0 mi Calm Calm - N/A   Clear
3:15 AM 39.2 °F - 35.6 °F 87% 29.94 in 10.0 mi Calm Calm - N/A   Clear
3:35 AM 39.2 °F - 35.6 °F 87% 29.94 in 10.0 mi Calm Calm - N/A   Clear
3:55 AM 39.2 °F - 35.6 °F 87% 29.93 in 10.0 mi Calm Calm - N/A   Clear
4:15 AM 33.8 °F - 32.0 °F 93% 29.93 in 10.0 mi Calm Calm - N/A   Clear
4:35 AM 35.6 °F - 33.8 °F 93% 29.94 in 10.0 mi Calm Calm - N/A   Clear
4:55 AM 35.6 °F - 33.8 °F 93% 29.95 in 10.0 mi Calm Calm - N/A   Clear
5:15 AM 35.6 °F - 33.8 °F 93% 29.95 in 10.0 mi Calm Calm - N/A   Clear
5:35 AM 33.8 °F - 32.0 °F 93% 29.95 in 10.0 mi Calm Calm - N/A   Clear
5:55 AM 33.8 °F - 32.0 °F 93% 29.96 in 10.0 mi Calm Calm - N/A   Clear
6:15 AM 33.8 °F - 32.0 °F 93% 29.96 in 10.0 mi Calm Calm - N/A   Clear
6:35 AM 33.8 °F 30.8 °F 32.0 °F 93% 29.96 in 10.0 mi North 3.5 mph - N/A   Clear
6:55 AM 33.8 °F 29.6 °F 33.8 °F 100% 29.97 in 10.0 mi NNW 4.6 mph - N/A   Clear
7:15 AM 33.8 °F 30.8 °F 32.0 °F 93% 29.98 in 10.0 mi North 3.5 mph - N/A   Clear
7:35 AM 33.8 °F 29.6 °F 32.0 °F 93% 29.99 in 10.0 mi North 4.6 mph - N/A   Clear
7:55 AM 33.8 °F - 33.8 °F 100% 29.99 in 10.0 mi Calm Calm - N/A   Clear
8:15 AM 37.4 °F - 35.6 °F 93% 30.00 in 10.0 mi Calm Calm - N/A   Clear
8:35 AM 39.2 °F - 35.6 °F 87% 30.01 in 10.0 mi Calm Calm - N/A   Clear
8:55 AM 42.8 °F - 37.4 °F 81% 30.01 in 10.0 mi Calm Calm - N/A   Clear
9:15 AM 44.6 °F - 39.2 °F 81% 30.02 in 10.0 mi Calm Calm - N/A   Clear
9:35 AM 48.2 °F - 39.2 °F 71% 30.02 in 10.0 mi Calm Calm - N/A   Clear
9:55 AM 50.0 °F - 41.0 °F 71% 30.02 in 10.0 mi South 3.5 mph - N/A   Clear
10:15 AM 51.8 °F - 41.0 °F 67% 30.03 in 10.0 mi Calm Calm - N/A   Clear
10:35 AM 53.6 °F - 42.8 °F 67% 30.03 in 10.0 mi Calm Calm - N/A   Clear
10:55 AM 55.4 °F - 42.8 °F 63% 30.03 in 10.0 mi South 3.5 mph - N/A   Clear
11:15 AM 59.0 °F - 44.6 °F 59% 30.03 in 10.0 mi Calm Calm - N/A   Clear
11:35 AM 60.8 °F - 46.4 °F 59% 30.04 in 10.0 mi Calm Calm - N/A   Clear
11:55 AM 62.6 °F - 48.2 °F 59% 30.03 in 10.0 mi Calm Calm - N/A   Clear
12:15 PM 64.4 °F - 44.6 °F 49% 30.02 in 10.0 mi Calm Calm - N/A   Clear
12:35 PM 64.4 °F - 44.6 °F 49% 30.02 in 10.0 mi Calm Calm - N/A   Clear
12:55 PM 68.0 °F - 42.8 °F 40% 30.02 in 10.0 mi WSW 3.5 mph - N/A   Clear
1:15 PM 68.0 °F - 41.0 °F 37% 30.01 in 10.0 mi WSW 3.5 mph - N/A   Clear
1:35 PM 68.0 °F - 41.0 °F 37% 30.00 in 10.0 mi East 5.8 mph - N/A   Clear
1:55 PM 68.0 °F - 39.2 °F 35% 30.00 in 10.0 mi NNW 5.8 mph - N/A   Clear
2:15 PM 68.0 °F - 39.2 °F 35% 30.00 in 10.0 mi North 3.5 mph - N/A   Clear
2:35 PM 69.8 °F - 41.0 °F 35% 30.00 in 10.0 mi NNW 3.5 mph - N/A   Clear
2:55 PM 69.8 °F - 41.0 °F 35% 30.00 in 10.0 mi Calm Calm - N/A   Clear
3:15 PM 69.8 °F - 37.4 °F 31% 29.99 in 10.0 mi North 3.5 mph - N/A   Clear
3:35 PM 69.8 °F - 37.4 °F 31% 29.99 in 10.0 mi ENE 4.6 mph - N/A   Clear
3:55 PM 69.8 °F - 35.6 °F 28% 29.99 in 10.0 mi Calm Calm - N/A   Clear
4:15 PM 69.8 °F - 35.6 °F 28% 29.99 in 10.0 mi NNE 5.8 mph - N/A   Clear
4:35 PM 68.0 °F - 35.6 °F 30% 29.99 in 10.0 mi Calm Calm - N/A   Clear
4:55 PM 68.0 °F - 39.2 °F 35% 29.99 in 10.0 mi East 3.5 mph - N/A   Clear
5:15 PM 66.2 °F - 37.4 °F 35% 29.99 in 10.0 mi NE 3.5 mph - N/A   Clear
5:35 PM 64.4 °F - 37.4 °F 37% 29.99 in 10.0 mi Calm Calm - N/A   Clear
5:55 PM 60.8 °F - 37.4 °F 42% 29.99 in 10.0 mi Calm Calm - N/A   Clear
6:15 PM 60.8 °F - 35.6 °F 39% 30.00 in 10.0 mi ENE 3.5 mph - N/A   Clear
6:35 PM 59.0 °F - 33.8 °F 39% 30.00 in 10.0 mi ENE 3.5 mph - N/A   Clear
6:55 PM 59.0 °F - 35.6 °F 42% 30.00 in 10.0 mi ENE 3.5 mph - N/A   Clear
7:15 PM 59.0 °F - 35.6 °F 42% 30.00 in 10.0 mi NE 3.5 mph - N/A   Clear
7:35 PM 59.0 °F - 35.6 °F 42% 30.01 in 10.0 mi ENE 4.6 mph - N/A   Clear
7:55 PM 59.0 °F - 35.6 °F 42% 30.01 in 10.0 mi NE 4.6 mph - N/A   Clear
8:15 PM 55.4 °F - 35.6 °F 47% 30.02 in 10.0 mi ENE 4.6 mph - N/A   Clear
8:35 PM 53.6 °F - 35.6 °F 51% 30.02 in 10.0 mi ENE 4.6 mph - N/A   Clear
8:55 PM 51.8 °F - 37.4 °F 58% 30.02 in 10.0 mi ENE 5.8 mph - N/A   Clear
9:15 PM 53.6 °F - 35.6 °F 51% 30.03 in 10.0 mi East 5.8 mph - N/A   Clear
9:35 PM 51.8 °F - 37.4 °F 58% 30.03 in 10.0 mi ENE 4.6 mph - N/A   Clear
9:55 PM 50.0 °F - 35.6 °F 58% 30.04 in 10.0 mi SSE 3.5 mph - N/A   Clear
10:15 PM 50.0 °F - 35.6 °F 58% 30.04 in 10.0 mi South 3.5 mph - N/A   Clear
10:35 PM 51.8 °F - 35.6 °F 54% 30.04 in 10.0 mi SSE 3.5 mph - N/A   Clear
10:55 PM 51.8 °F - 35.6 °F 54% 30.04 in 10.0 mi South 4.6 mph - N/A   Clear
11:15 PM 50.0 °F - 35.6 °F 58% 30.04 in 10.0 mi SE 3.5 mph - N/A   Clear
11:35 PM 46.4 °F 44.3 °F 35.6 °F 66% 30.04 in 10.0 mi ESE 4.6 mph - N/A   Clear
11:55 PM 46.4 °F 44.3 °F 35.6 °F 66% 30.05 in 10.0 mi ESE 4.6 mph - N/A   Clear